Time,TemperatureF,DewpointF,PressureIn,WindDirection,WindDirectionDegrees,WindSpeedMPH,WindSpeedGustMPH,Humidity,HourlyPrecipIn,Conditions,Clouds,dailyrainin,SoftwareType,DateUTC
2013-03-29 00:00:00,53.8,45.0,30.29,NW,310,0.0,0.0,72,0.00,,,0.00,meteohub,2013-03-29 04:00:00,
2013-03-29 00:05:00,53.8,45.3,30.29,NW,310,0.0,0.0,73,0.00,,,0.00,meteohub,2013-03-29 04:05:00,
2013-03-29 00:07:00,53.8,45.3,30.29,NW,310,0.0,0.0,73,0.00,,,0.00,meteohub,2013-03-29 04:07:00,
2013-03-29 00:12:00,53.6,45.1,30.29,NW,310,0.0,0.0,73,0.00,,,0.00,meteohub,2013-03-29 04:12:00,
2013-03-29 00:18:00,53.4,45.0,30.29,NW,310,0.0,0.0,73,0.00,,,0.00,meteohub,2013-03-29 04:18:00,
2013-03-29 00:23:00,53.2,45.1,30.29,NW,310,0.0,0.0,74,0.00,,,0.00,meteohub,2013-03-29 04:23:00,
2013-03-29 00:28:00,53.2,45.1,30.29,NW,310,0.0,0.0,74,0.00,,,0.00,meteohub,2013-03-29 04:28:00,
2013-03-29 00:33:00,53.2,45.5,30.29,NW,310,0.0,0.0,75,0.00,,,0.00,meteohub,2013-03-29 04:33:00,
2013-03-29 00:38:00,53.2,45.5,30.29,NW,310,0.0,0.0,75,0.00,,,0.00,meteohub,2013-03-29 04:38:00,
2013-03-29 00:44:00,53.2,45.5,30.29,NW,310,0.0,0.0,75,0.00,,,0.00,meteohub,2013-03-29 04:44:00,
2013-03-29 00:49:00,53.1,45.3,30.29,NW,310,0.0,0.0,75,0.00,,,0.00,meteohub,2013-03-29 04:49:00,
2013-03-29 00:54:00,52.5,45.1,30.30,NNE,28,0.0,0.0,76,0.00,,,0.00,meteohub,2013-03-29 04:54:00,
2013-03-29 01:00:00,52.3,45.7,30.30,NNE,28,0.0,2.0,78,0.00,,,0.00,meteohub,2013-03-29 05:00:00,
2013-03-29 01:05:00,52.5,46.2,30.30,NNE,28,0.0,5.0,79,0.00,,,0.00,meteohub,2013-03-29 05:05:00,
2013-03-29 01:10:00,52.5,46.2,30.30,NNE,28,0.0,5.0,79,0.00,,,0.00,meteohub,2013-03-29 05:10:00,
2013-03-29 01:15:00,52.5,46.6,30.30,NNE,28,0.0,1.0,80,0.00,,,0.00,meteohub,2013-03-29 05:15:00,
2013-03-29 01:20:00,52.7,47.1,30.30,NNE,28,0.0,0.0,81,0.00,,,0.00,meteohub,2013-03-29 05:20:00,
2013-03-29 01:26:00,52.7,47.1,30.29,NNE,28,0.0,2.0,81,0.00,,,0.00,meteohub,2013-03-29 05:26:00,
2013-03-29 01:32:00,52.9,46.9,30.29,NNE,28,0.0,2.0,80,0.00,,,0.00,meteohub,2013-03-29 05:32:00,
2013-03-29 01:37:00,52.9,46.9,30.30,NNE,28,0.0,2.0,80,0.00,,,0.00,meteohub,2013-03-29 05:37:00,
2013-03-29 01:42:00,52.7,47.1,30.29,NNE,28,0.0,2.0,81,0.00,,,0.00,meteohub,2013-03-29 05:42:00,
2013-03-29 01:47:00,52.5,46.6,30.29,NNE,28,0.0,1.0,80,0.00,,,0.00,meteohub,2013-03-29 05:47:00,
2013-03-29 01:52:00,52.5,46.9,30.29,NNE,28,0.0,1.0,81,0.00,,,0.00,meteohub,2013-03-29 05:52:00,
2013-03-29 01:58:00,52.3,46.8,30.29,NNE,28,0.0,0.0,81,0.00,,,0.00,meteohub,2013-03-29 05:58:00,
2013-03-29 02:03:00,52.2,46.6,30.29,NNE,28,0.0,0.0,81,0.00,,,0.00,meteohub,2013-03-29 06:03:00,
2013-03-29 02:08:00,52.2,46.8,30.28,NNE,28,0.0,0.0,82,0.00,,,0.00,meteohub,2013-03-29 06:08:00,
2013-03-29 02:13:00,52.0,46.6,30.28,NNE,28,0.0,0.0,82,0.00,,,0.00,meteohub,2013-03-29 06:13:00,
2013-03-29 02:18:00,52.0,46.6,30.29,NNE,28,0.0,0.0,82,0.00,,,0.00,meteohub,2013-03-29 06:18:00,
2013-03-29 02:23:00,51.6,46.2,30.28,NNE,28,0.0,0.0,82,0.00,,,0.00,meteohub,2013-03-29 06:23:00,
2013-03-29 02:28:00,51.4,46.2,30.28,NNE,28,0.0,1.0,82,0.00,,,0.00,meteohub,2013-03-29 06:28:00,
2013-03-29 02:33:00,51.3,45.7,30.28,NNE,28,0.0,1.0,81,0.00,,,0.00,meteohub,2013-03-29 06:33:00,
2013-03-29 02:39:00,51.1,45.5,30.28,NNE,28,0.0,0.0,81,0.00,,,0.00,meteohub,2013-03-29 06:39:00,
2013-03-29 02:44:00,50.9,45.3,30.28,NNE,28,0.0,0.0,81,0.00,,,0.00,meteohub,2013-03-29 06:44:00,
2013-03-29 02:49:00,50.5,45.0,30.28,NNE,28,0.0,0.0,81,0.00,,,0.00,meteohub,2013-03-29 06:49:00,
2013-03-29 02:55:00,50.5,45.3,30.28,NNE,28,0.0,0.0,82,0.00,,,0.00,meteohub,2013-03-29 06:55:00,
2013-03-29 03:00:00,50.5,45.3,30.28,NNE,28,0.0,0.0,82,0.00,,,0.00,meteohub,2013-03-29 07:00:00,
2013-03-29 03:05:00,50.5,45.3,30.28,NNE,28,0.0,0.0,82,0.00,,,0.00,meteohub,2013-03-29 07:05:00,
2013-03-29 03:10:00,50.5,45.5,30.28,NNE,28,0.0,0.0,83,0.00,,,0.00,meteohub,2013-03-29 07:10:00,
2013-03-29 03:16:00,50.4,45.3,30.28,NNE,28,0.0,0.0,83,0.00,,,0.00,meteohub,2013-03-29 07:16:00,
2013-03-29 03:21:00,50.4,45.3,30.28,NNE,28,0.0,0.0,83,0.00,,,0.00,meteohub,2013-03-29 07:21:00,
2013-03-29 03:27:00,50.4,45.3,30.28,NNE,28,0.0,0.0,83,0.00,,,0.00,meteohub,2013-03-29 07:27:00,
2013-03-29 03:32:00,50.4,45.3,30.28,NNE,28,0.0,0.0,83,0.00,,,0.00,meteohub,2013-03-29 07:32:00,
2013-03-29 03:37:00,50.2,45.5,30.28,NNE,28,0.0,0.0,84,0.00,,,0.00,meteohub,2013-03-29 07:37:00,
2013-03-29 03:42:00,50.2,45.5,30.28,NNE,28,0.0,0.0,84,0.00,,,0.00,meteohub,2013-03-29 07:42:00,
2013-03-29 03:47:00,50.0,45.3,30.27,NNE,28,0.0,0.0,84,0.00,,,0.00,meteohub,2013-03-29 07:47:00,
2013-03-29 03:52:00,50.0,45.3,30.27,NNE,28,0.0,0.0,84,0.00,,,0.00,meteohub,2013-03-29 07:52:00,
2013-03-29 03:57:00,49.8,45.1,30.27,NNE,28,0.0,0.0,84,0.00,,,0.00,meteohub,2013-03-29 07:57:00,
2013-03-29 04:02:00,49.8,45.1,30.27,NNE,28,0.0,1.0,84,0.00,,,0.00,meteohub,2013-03-29 08:02:00,
2013-03-29 04:07:00,49.8,45.1,30.27,NNE,28,0.0,1.0,84,0.00,,,0.00,meteohub,2013-03-29 08:07:00,
2013-03-29 04:12:00,49.6,45.0,30.27,NNE,28,0.0,1.0,84,0.00,,,0.00,meteohub,2013-03-29 08:12:00,
2013-03-29 04:18:00,49.6,45.0,30.27,NNE,28,0.0,0.0,84,0.00,,,0.00,meteohub,2013-03-29 08:18:00,
2013-03-29 04:23:00,49.6,45.0,30.27,NNE,28,0.0,0.0,84,0.00,,,0.00,meteohub,2013-03-29 08:23:00,
2013-03-29 04:28:00,49.5,44.8,30.27,NNE,28,0.0,0.0,84,0.00,,,0.00,meteohub,2013-03-29 08:28:00,
2013-03-29 04:33:00,49.5,44.8,30.27,NNE,28,0.0,0.0,84,0.00,,,0.00,meteohub,2013-03-29 08:33:00,
2013-03-29 04:39:00,49.5,44.8,30.27,NNE,28,0.0,0.0,84,0.00,,,0.00,meteohub,2013-03-29 08:39:00,
2013-03-29 04:44:00,49.5,44.8,30.27,NNE,28,0.0,0.0,84,0.00,,,0.00,meteohub,2013-03-29 08:44:00,
2013-03-29 04:49:00,49.3,44.6,30.27,NNE,28,0.0,0.0,84,0.00,,,0.00,meteohub,2013-03-29 08:49:00,
2013-03-29 04:54:00,49.3,44.6,30.27,NNE,28,0.0,0.0,84,0.00,,,0.00,meteohub,2013-03-29 08:54:00,
2013-03-29 04:59:00,49.3,44.6,30.27,NNE,28,0.0,1.0,84,0.00,,,0.00,meteohub,2013-03-29 08:59:00,
2013-03-29 05:04:00,49.3,44.6,30.27,NNE,28,0.0,1.0,84,0.00,,,0.00,meteohub,2013-03-29 09:04:00,
2013-03-29 05:09:00,49.5,44.8,30.27,NNE,28,1.0,2.0,84,0.00,,,0.00,meteohub,2013-03-29 09:09:00,
2013-03-29 05:15:00,49.5,44.8,30.27,NNE,28,0.0,2.0,84,0.00,,,0.00,meteohub,2013-03-29 09:15:00,
2013-03-29 05:20:00,49.5,44.8,30.27,NNE,28,0.0,2.0,84,0.00,,,0.00,meteohub,2013-03-29 09:20:00,
2013-03-29 05:25:00,49.6,45.0,30.27,NNE,28,0.0,3.0,84,0.00,,,0.00,meteohub,2013-03-29 09:25:00,
2013-03-29 05:31:00,50.0,45.0,30.27,NNE,28,2.0,3.0,83,0.00,,,0.00,meteohub,2013-03-29 09:31:00,
2013-03-29 05:37:00,50.4,45.1,30.27,NNE,28,1.0,5.0,82,0.00,,,0.00,meteohub,2013-03-29 09:37:00,
2013-03-29 05:42:00,50.4,45.1,30.27,NNE,28,2.0,5.0,82,0.00,,,0.00,meteohub,2013-03-29 09:42:00,
2013-03-29 05:47:00,50.5,45.3,30.27,NNE,28,0.0,5.0,82,0.00,,,0.00,meteohub,2013-03-29 09:47:00,
2013-03-29 05:52:00,50.5,45.3,30.27,NNE,28,1.0,5.0,82,0.00,,,0.00,meteohub,2013-03-29 09:52:00,
2013-03-29 05:57:00,50.5,45.3,30.27,NNE,28,0.0,5.0,82,0.00,,,0.00,meteohub,2013-03-29 09:57:00,
2013-03-29 06:02:00,50.5,45.3,30.27,NNE,28,0.0,5.0,82,0.00,,,0.00,meteohub,2013-03-29 10:02:00,
2013-03-29 06:07:00,50.5,45.3,30.28,NNE,28,0.0,4.0,82,0.00,,,0.00,meteohub,2013-03-29 10:07:00,
2013-03-29 06:12:00,50.5,45.3,30.28,NNE,28,0.0,3.0,82,0.00,,,0.00,meteohub,2013-03-29 10:12:00,
2013-03-29 06:17:00,50.5,45.3,30.28,NNE,28,1.0,3.0,82,0.00,,,0.00,meteohub,2013-03-29 10:17:00,
2013-03-29 06:22:00,50.7,45.7,30.28,NNE,28,0.0,4.0,83,0.00,,,0.00,meteohub,2013-03-29 10:22:00,
2013-03-29 06:27:00,50.7,45.7,30.28,NNE,28,0.0,4.0,83,0.00,,,0.00,meteohub,2013-03-29 10:27:00,
2013-03-29 06:32:00,50.9,45.9,30.28,NNE,28,0.0,4.0,83,0.00,,,0.00,meteohub,2013-03-29 10:32:00,
2013-03-29 06:38:00,51.1,46.0,30.28,NNE,28,0.0,2.0,83,0.00,,,0.00,meteohub,2013-03-29 10:38:00,
2013-03-29 06:43:00,51.4,46.4,30.28,NNE,28,0.0,1.0,83,0.00,,,0.00,meteohub,2013-03-29 10:43:00,
2013-03-29 06:49:00,51.4,46.4,30.29,NNE,28,0.0,2.0,83,0.00,,,0.00,meteohub,2013-03-29 10:49:00,
2013-03-29 06:54:00,51.6,46.2,30.29,NNE,28,2.0,2.0,82,0.00,,,0.00,meteohub,2013-03-29 10:54:00,
2013-03-29 06:59:00,51.6,46.2,30.29,NNE,28,0.0,2.0,82,0.00,,,0.00,meteohub,2013-03-29 10:59:00,
2013-03-29 07:04:00,51.8,46.4,30.29,NNE,28,1.0,2.0,82,0.00,,,0.00,meteohub,2013-03-29 11:04:00,
2013-03-29 07:09:00,52.0,46.6,30.29,NNE,28,0.0,3.0,82,0.00,,,0.00,meteohub,2013-03-29 11:09:00,
2013-03-29 07:14:00,52.0,46.6,30.29,NNE,28,0.0,3.0,82,0.00,,,0.00,meteohub,2013-03-29 11:14:00,
2013-03-29 07:20:00,52.0,46.6,30.29,NNE,28,0.0,3.0,82,0.00,,,0.00,meteohub,2013-03-29 11:20:00,
2013-03-29 07:25:00,52.0,46.6,30.30,NNE,28,0.0,3.0,82,0.00,,,0.00,meteohub,2013-03-29 11:25:00,
2013-03-29 07:30:00,52.0,46.9,30.30,NNE,28,0.0,0.0,83,0.00,,,0.00,meteohub,2013-03-29 11:30:00,
2013-03-29 07:35:00,52.0,46.9,30.30,NNE,28,0.0,0.0,83,0.00,,,0.00,meteohub,2013-03-29 11:35:00,
2013-03-29 07:41:00,52.0,46.9,30.30,NNE,28,0.0,1.0,83,0.00,,,0.00,meteohub,2013-03-29 11:41:00,
2013-03-29 07:47:00,52.2,47.5,30.30,NNE,28,0.0,1.0,84,0.00,,,0.00,meteohub,2013-03-29 11:47:00,
2013-03-29 07:52:00,52.2,47.5,30.31,NNE,28,0.0,2.0,84,0.00,,,0.00,meteohub,2013-03-29 11:52:00,
2013-03-29 07:57:00,52.2,47.1,30.31,NNE,28,0.0,4.0,83,0.00,,,0.00,meteohub,2013-03-29 11:57:00,
2013-03-29 08:02:00,52.3,46.9,30.31,NNE,28,1.0,4.0,82,0.00,,,0.00,meteohub,2013-03-29 12:02:00,
2013-03-29 08:07:00,52.3,46.8,30.31,NNE,28,0.0,4.0,81,0.00,,,0.00,meteohub,2013-03-29 12:07:00,
2013-03-29 08:13:00,52.7,47.1,30.31,NNE,28,1.0,4.0,81,0.00,,,0.00,meteohub,2013-03-29 12:13:00,
2013-03-29 08:18:00,53.1,47.3,30.31,NNE,28,0.0,4.0,81,0.00,,,0.00,meteohub,2013-03-29 12:18:00,
2013-03-29 08:23:00,53.2,47.3,30.32,NNE,28,1.0,5.0,80,0.00,,,0.00,meteohub,2013-03-29 12:23:00,
2013-03-29 08:28:00,53.8,47.8,30.32,NNE,28,1.0,5.0,80,0.00,,,0.00,meteohub,2013-03-29 12:28:00,
2013-03-29 08:33:00,54.1,47.8,30.32,NNE,28,1.0,4.0,79,0.00,,,0.00,meteohub,2013-03-29 12:33:00,
2013-03-29 08:38:00,54.5,47.8,30.32,NNE,28,0.0,4.0,78,0.00,,,0.00,meteohub,2013-03-29 12:38:00,
2013-03-29 08:44:00,55.0,48.4,30.32,NNE,28,0.0,4.0,78,0.00,,,0.00,meteohub,2013-03-29 12:44:00,
2013-03-29 08:49:00,55.6,48.6,30.32,NNE,28,0.0,3.0,77,0.00,,,0.00,meteohub,2013-03-29 12:49:00,
2013-03-29 08:54:00,56.1,48.9,30.32,NNE,28,0.0,3.0,77,0.00,,,0.00,meteohub,2013-03-29 12:54:00,
2013-03-29 08:59:00,56.7,49.5,30.32,NNE,30,1.0,4.0,77,0.00,,,0.00,meteohub,2013-03-29 12:59:00,
2013-03-29 09:04:00,56.8,49.3,30.33,NE,38,1.0,4.0,76,0.00,,,0.00,meteohub,2013-03-29 13:04:00,
2013-03-29 09:10:00,57.4,49.5,30.33,NE,38,0.0,5.0,75,0.00,,,0.00,meteohub,2013-03-29 13:10:00,
2013-03-29 09:15:00,57.6,49.6,30.33,NE,39,2.0,5.0,75,0.00,,,0.00,meteohub,2013-03-29 13:15:00,
2013-03-29 09:20:00,57.9,49.3,30.34,NE,39,0.0,5.0,73,0.00,,,0.00,meteohub,2013-03-29 13:20:00,
2013-03-29 09:25:00,58.5,49.8,30.34,NE,39,0.0,4.0,73,0.00,,,0.00,meteohub,2013-03-29 13:25:00,
2013-03-29 09:30:00,58.6,49.6,30.34,NE,39,0.0,4.0,72,0.00,,,0.00,meteohub,2013-03-29 13:30:00,
2013-03-29 09:36:00,59.0,49.6,30.34,NE,39,0.0,4.0,71,0.00,,,0.00,meteohub,2013-03-29 13:36:00,
2013-03-29 09:41:00,59.5,50.5,30.34,NE,39,0.0,4.0,72,0.00,,,0.00,meteohub,2013-03-29 13:41:00,
2013-03-29 09:46:00,59.9,50.2,30.34,NE,39,1.0,4.0,70,0.00,,,0.00,meteohub,2013-03-29 13:46:00,
2013-03-29 09:52:00,60.3,48.9,30.34,NE,39,0.0,5.0,66,0.00,,,0.00,meteohub,2013-03-29 13:52:00,
2013-03-29 09:57:00,60.6,48.4,30.34,NE,39,3.0,5.0,64,0.00,,,0.00,meteohub,2013-03-29 13:57:00,
2013-03-29 10:02:00,61.3,49.1,30.34,NE,39,0.0,5.0,64,0.00,,,0.00,meteohub,2013-03-29 14:02:00,
2013-03-29 10:08:00,61.9,47.8,30.34,NE,39,0.0,5.0,60,0.00,,,0.00,meteohub,2013-03-29 14:08:00,
2013-03-29 10:13:00,62.4,48.7,30.34,NE,39,4.0,5.0,61,0.00,,,0.00,meteohub,2013-03-29 14:13:00,
2013-03-29 10:18:00,63.0,48.4,30.34,NE,44,2.0,4.0,59,0.00,,,0.00,meteohub,2013-03-29 14:18:00,
2013-03-29 10:23:00,63.3,48.7,30.34,NE,46,1.0,4.0,59,0.00,,,0.00,meteohub,2013-03-29 14:23:00,
2013-03-29 10:28:00,63.7,47.3,30.34,NE,48,0.0,4.0,55,0.00,,,0.00,meteohub,2013-03-29 14:28:00,
2013-03-29 10:34:00,64.4,48.4,30.34,ENE,64,4.0,4.0,56,0.00,,,0.00,meteohub,2013-03-29 14:34:00,
2013-03-29 10:39:00,64.6,48.0,30.34,ENE,66,2.0,5.0,55,0.00,,,0.00,meteohub,2013-03-29 14:39:00,
2013-03-29 10:44:00,64.8,48.2,30.35,ENE,69,2.0,5.0,55,0.00,,,0.00,meteohub,2013-03-29 14:44:00,
2013-03-29 10:49:00,65.1,48.0,30.34,ENE,71,3.0,5.0,54,0.00,,,0.00,meteohub,2013-03-29 14:49:00,
2013-03-29 10:54:00,65.5,47.5,30.35,ENE,71,1.0,5.0,52,0.00,,,0.00,meteohub,2013-03-29 14:54:00,
2013-03-29 11:00:00,66.0,48.9,30.34,ENE,72,2.0,5.0,54,0.00,,,0.00,meteohub,2013-03-29 15:00:00,
2013-03-29 11:05:00,66.4,46.6,30.34,ENE,71,0.0,5.0,49,0.00,,,0.00,meteohub,2013-03-29 15:05:00,
2013-03-29 11:10:00,66.9,47.7,30.34,ENE,71,2.0,5.0,50,0.00,,,0.00,meteohub,2013-03-29 15:10:00,
2013-03-29 11:15:00,67.5,47.1,30.34,ENE,72,2.0,5.0,48,0.00,,,0.00,meteohub,2013-03-29 15:15:00,
2013-03-29 11:20:00,67.8,45.7,30.34,ENE,72,3.0,5.0,45,0.00,,,0.00,meteohub,2013-03-29 15:20:00,
2013-03-29 11:25:00,68.2,47.7,30.34,ENE,74,3.0,5.0,48,0.00,,,0.00,meteohub,2013-03-29 15:25:00,
2013-03-29 11:30:00,68.9,45.5,30.34,ENE,75,0.0,8.0,43,0.00,,,0.00,meteohub,2013-03-29 15:30:00,
2013-03-29 11:36:00,69.6,43.5,30.34,ENE,73,4.0,8.0,39,0.00,,,0.00,meteohub,2013-03-29 15:36:00,
2013-03-29 11:41:00,70.2,43.3,30.34,ENE,73,1.0,5.0,38,0.00,,,0.00,meteohub,2013-03-29 15:41:00,
2013-03-29 11:47:00,70.2,44.1,30.34,East,88,1.0,8.0,39,0.00,,,0.00,meteohub,2013-03-29 15:47:00,
2013-03-29 11:52:00,70.3,43.5,30.34,East,82,2.0,8.0,38,0.00,,,0.00,meteohub,2013-03-29 15:52:00,
2013-03-29 11:57:00,70.5,43.0,30.33,East,84,3.0,8.0,37,0.00,,,0.00,meteohub,2013-03-29 15:57:00,
2013-03-29 12:02:00,70.3,44.2,30.33,East,88,7.0,8.0,39,0.00,,,0.00,meteohub,2013-03-29 16:02:00,
2013-03-29 12:08:00,70.2,44.8,30.33,East,84,1.0,9.0,40,0.00,,,0.00,meteohub,2013-03-29 16:08:00,
2013-03-29 12:13:00,70.7,45.9,30.32,East,84,5.0,9.0,41,0.00,,,0.00,meteohub,2013-03-29 16:13:00,
2013-03-29 12:18:00,71.2,42.3,30.32,East,80,1.0,9.0,35,0.00,,,0.00,meteohub,2013-03-29 16:18:00,
2013-03-29 12:23:00,72.0,38.8,30.32,NE,54,7.0,9.0,30,0.00,,,0.00,meteohub,2013-03-29 16:23:00,
2013-03-29 12:28:00,72.3,39.2,30.32,NE,54,2.0,9.0,30,0.00,,,0.00,meteohub,2013-03-29 16:28:00,
2013-03-29 12:34:00,72.9,40.5,30.32,NE,56,2.0,8.0,31,0.00,,,0.00,meteohub,2013-03-29 16:34:00,
2013-03-29 12:39:00,73.6,40.3,30.32,ENE,58,0.0,8.0,30,0.00,,,0.00,meteohub,2013-03-29 16:39:00,
2013-03-29 12:44:00,74.1,40.6,30.32,ENE,62,2.0,7.0,30,0.00,,,0.00,meteohub,2013-03-29 16:44:00,
2013-03-29 12:49:00,74.1,43.9,30.31,ENE,65,1.0,5.0,34,0.00,,,0.00,meteohub,2013-03-29 16:49:00,
2013-03-29 12:54:00,73.8,45.1,30.31,East,81,6.0,6.0,36,0.00,,,0.00,meteohub,2013-03-29 16:54:00,
2013-03-29 12:59:00,73.0,45.1,30.31,East,85,0.0,9.0,37,0.00,,,0.00,meteohub,2013-03-29 16:59:00,
2013-03-29 13:05:00,72.3,48.0,30.30,East,86,1.0,9.0,42,0.00,,,0.00,meteohub,2013-03-29 17:05:00,
2013-03-29 13:10:00,71.6,46.6,30.30,East,90,6.0,9.0,41,0.00,,,0.00,meteohub,2013-03-29 17:10:00,
2013-03-29 13:15:00,69.3,47.7,30.30,ESE,111,3.0,7.0,46,0.00,,,0.00,meteohub,2013-03-29 17:15:00,
2013-03-29 13:20:00,67.8,43.9,30.30,ESE,120,0.0,7.0,42,0.00,,,0.00,meteohub,2013-03-29 17:20:00,
2013-03-29 13:26:00,67.3,43.3,30.30,ESE,120,3.0,7.0,42,0.00,,,0.00,meteohub,2013-03-29 17:26:00,
2013-03-29 13:32:00,67.5,48.2,30.29,ESE,120,4.0,5.0,50,0.00,,,0.00,meteohub,2013-03-29 17:32:00,
2013-03-29 13:37:00,66.9,44.2,30.29,ESE,120,4.0,5.0,44,0.00,,,0.00,meteohub,2013-03-29 17:37:00,
2013-03-29 13:42:00,67.1,44.4,30.29,ESE,120,4.0,5.0,44,0.00,,,0.00,meteohub,2013-03-29 17:42:00,
2013-03-29 13:47:00,67.3,43.3,30.29,ESE,120,2.0,5.0,42,0.00,,,0.00,meteohub,2013-03-29 17:47:00,
2013-03-29 13:52:00,67.5,42.3,30.29,ESE,120,2.0,5.0,40,0.00,,,0.00,meteohub,2013-03-29 17:52:00,
2013-03-29 13:57:00,68.7,42.1,30.29,ESE,120,3.0,5.0,38,0.00,,,0.00,meteohub,2013-03-29 17:57:00,
2013-03-29 14:02:00,68.4,41.0,30.28,South,173,3.0,5.0,37,0.00,,,0.00,meteohub,2013-03-29 18:02:00,
2013-03-29 14:08:00,68.7,39.9,30.28,South,173,4.0,6.0,35,0.03,,,0.03,meteohub,2013-03-29 18:08:00,
2013-03-29 14:13:00,68.9,40.1,30.28,South,173,4.0,6.0,35,0.03,,,0.03,meteohub,2013-03-29 18:13:00,
2013-03-29 14:18:00,68.5,43.3,30.28,South,173,5.0,5.0,40,0.03,,,0.03,meteohub,2013-03-29 18:18:00,
2013-03-29 14:24:00,69.3,38.1,30.28,South,175,2.0,5.0,32,0.03,,,0.03,meteohub,2013-03-29 18:24:00,
2013-03-29 14:29:00,69.8,39.4,30.28,South,175,3.0,5.0,33,0.03,,,0.03,meteohub,2013-03-29 18:29:00,
2013-03-29 14:34:00,69.4,43.3,30.28,South,175,3.0,5.0,39,0.03,,,0.03,meteohub,2013-03-29 18:34:00,
2013-03-29 14:39:00,69.4,46.6,30.28,South,175,3.0,5.0,44,0.03,,,0.03,meteohub,2013-03-29 18:39:00,
2013-03-29 14:44:00,69.8,45.0,30.27,South,175,3.0,5.0,41,0.03,,,0.03,meteohub,2013-03-29 18:44:00,
2013-03-29 14:50:00,69.8,46.9,30.27,South,175,1.0,5.0,44,0.03,,,0.03,meteohub,2013-03-29 18:50:00,
2013-03-29 14:55:00,71.2,48.2,30.27,SE,131,2.0,5.0,44,0.03,,,0.03,meteohub,2013-03-29 18:55:00,
2013-03-29 15:00:00,71.4,46.6,30.27,SE,141,3.0,5.0,41,0.02,,,0.03,meteohub,2013-03-29 19:00:00,
2013-03-29 15:06:00,70.3,45.0,30.27,SSE,156,4.0,5.0,40,0.00,,,0.03,meteohub,2013-03-29 19:06:00,
2013-03-29 15:12:00,69.6,44.2,30.26,SSE,156,4.0,6.0,40,0.00,,,0.03,meteohub,2013-03-29 19:12:00,
2013-03-29 15:17:00,69.4,43.3,30.26,SSE,156,3.0,6.0,39,0.00,,,0.03,meteohub,2013-03-29 19:17:00,
2013-03-29 15:22:00,69.6,44.2,30.26,SSE,156,2.0,6.0,40,0.00,,,0.03,meteohub,2013-03-29 19:22:00,
2013-03-29 15:27:00,70.9,43.3,30.26,SSE,156,1.0,6.0,37,0.00,,,0.03,meteohub,2013-03-29 19:27:00,
2013-03-29 15:32:00,71.1,42.1,30.25,SSE,156,1.0,5.0,35,0.00,,,0.03,meteohub,2013-03-29 19:32:00,
2013-03-29 15:38:00,71.6,39.4,30.25,South,175,4.0,4.0,31,0.00,,,0.03,meteohub,2013-03-29 19:38:00,
2013-03-29 15:43:00,72.0,42.1,30.25,South,178,4.0,7.0,34,0.00,,,0.03,meteohub,2013-03-29 19:43:00,
2013-03-29 15:48:00,72.3,43.2,30.25,South,190,4.0,7.0,35,0.00,,,0.03,meteohub,2013-03-29 19:48:00,
2013-03-29 15:53:00,73.2,46.0,30.24,WNW,283,5.0,7.0,38,0.00,,,0.03,meteohub,2013-03-29 19:53:00,
2013-03-29 15:59:00,74.1,48.9,30.24,SSE,162,0.0,14.0,41,0.00,,,0.03,meteohub,2013-03-29 19:59:00,
2013-03-29 16:04:00,74.3,47.1,30.24,WNW,300,6.0,14.0,38,0.00,,,0.03,meteohub,2013-03-29 20:04:00,
2013-03-29 16:09:00,72.9,46.4,30.24,WNW,288,5.0,7.0,39,0.00,,,0.03,meteohub,2013-03-29 20:09:00,
2013-03-29 16:14:00,72.3,45.3,30.24,WNW,292,4.0,9.0,38,0.00,,,0.03,meteohub,2013-03-29 20:14:00,
2013-03-29 16:20:00,72.0,46.4,30.23,WNW,293,7.0,9.0,40,0.00,,,0.03,meteohub,2013-03-29 20:20:00,
2013-03-29 16:25:00,71.8,46.2,30.23,NW,305,4.0,9.0,40,0.00,,,0.03,meteohub,2013-03-29 20:25:00,
2013-03-29 16:30:00,72.1,47.1,30.23,West,281,7.0,9.0,41,0.00,,,0.03,meteohub,2013-03-29 20:30:00,
2013-03-29 16:35:00,71.4,47.8,30.23,WNW,286,5.0,9.0,43,0.00,,,0.03,meteohub,2013-03-29 20:35:00,
2013-03-29 16:40:00,71.2,48.2,30.22,WNW,299,9.0,9.0,44,0.00,,,0.03,meteohub,2013-03-29 20:40:00,
2013-03-29 16:46:00,71.4,47.8,30.22,WNW,282,7.0,9.0,43,0.00,,,0.03,meteohub,2013-03-29 20:46:00,
2013-03-29 16:51:00,71.2,46.9,30.23,WNW,290,4.0,10.0,42,0.00,,,0.03,meteohub,2013-03-29 20:51:00,
2013-03-29 16:56:00,71.4,47.8,30.23,WNW,298,6.0,10.0,43,0.00,,,0.03,meteohub,2013-03-29 20:56:00,
2013-03-29 17:02:00,71.4,47.1,30.23,NW,306,4.0,10.0,42,0.00,,,0.03,meteohub,2013-03-29 21:02:00,
2013-03-29 17:07:00,71.1,47.5,30.23,WNW,296,4.0,8.0,43,0.00,,,0.03,meteohub,2013-03-29 21:07:00,
2013-03-29 17:12:00,70.5,48.2,30.22,West,274,2.0,8.0,45,0.00,,,0.03,meteohub,2013-03-29 21:12:00,
2013-03-29 17:17:00,70.5,47.5,30.22,WNW,298,3.0,8.0,44,0.00,,,0.03,meteohub,2013-03-29 21:17:00,
2013-03-29 17:22:00,70.3,47.5,30.22,NW,304,4.0,8.0,44,0.00,,,0.03,meteohub,2013-03-29 21:22:00,
2013-03-29 17:27:00,69.6,47.3,30.22,NW,308,1.0,8.0,45,0.00,,,0.03,meteohub,2013-03-29 21:27:00,
2013-03-29 17:32:00,69.6,46.8,30.22,WNW,287,4.0,8.0,44,0.00,,,0.03,meteohub,2013-03-29 21:32:00,
2013-03-29 17:37:00,69.4,47.8,30.22,WNW,288,2.0,8.0,46,0.00,,,0.03,meteohub,2013-03-29 21:37:00,
2013-03-29 17:43:00,69.3,46.4,30.22,NW,305,3.0,9.0,44,0.00,,,0.03,meteohub,2013-03-29 21:43:00,
2013-03-29 17:48:00,69.4,47.1,30.22,West,277,0.0,9.0,45,0.00,,,0.03,meteohub,2013-03-29 21:48:00,
2013-03-29 17:53:00,69.3,45.9,30.22,WNW,298,6.0,9.0,43,0.00,,,0.03,meteohub,2013-03-29 21:53:00,
2013-03-29 17:59:00,68.7,45.9,30.22,WNW,292,3.0,9.0,44,0.00,,,0.03,meteohub,2013-03-29 21:59:00,
2013-03-29 18:04:00,68.7,44.1,30.22,NNW,329,3.0,9.0,41,0.00,,,0.03,meteohub,2013-03-29 22:04:00,
2013-03-29 18:09:00,68.5,43.9,30.22,WNW,290,3.0,9.0,41,0.00,,,0.03,meteohub,2013-03-29 22:09:00,
2013-03-29 18:15:00,68.9,44.8,30.22,WNW,290,1.0,9.0,42,0.00,,,0.03,meteohub,2013-03-29 22:15:00,
2013-03-29 18:20:00,69.1,43.7,30.22,WNW,296,6.0,9.0,40,0.00,,,0.03,meteohub,2013-03-29 22:20:00,
2013-03-29 18:25:00,68.5,43.9,30.22,WNW,292,5.0,8.0,41,0.00,,,0.03,meteohub,2013-03-29 22:25:00,
2013-03-29 18:30:00,68.4,44.4,30.22,WNW,298,3.0,9.0,42,0.00,,,0.03,meteohub,2013-03-29 22:30:00,
2013-03-29 18:35:00,68.2,44.8,30.22,WNW,298,2.0,9.0,43,0.00,,,0.03,meteohub,2013-03-29 22:35:00,
2013-03-29 18:41:00,68.0,45.9,30.22,WNW,300,6.0,8.0,45,0.00,,,0.03,meteohub,2013-03-29 22:41:00,
2013-03-29 18:46:00,67.8,45.1,30.22,NW,316,6.0,8.0,44,0.00,,,0.03,meteohub,2013-03-29 22:46:00,
2013-03-29 18:52:00,67.1,43.9,30.22,NW,321,8.0,8.0,43,0.00,,,0.03,meteohub,2013-03-29 22:52:00,
2013-03-29 18:57:00,66.9,44.2,30.22,NW,310,5.0,8.0,44,0.00,,,0.03,meteohub,2013-03-29 22:57:00,
2013-03-29 19:02:00,66.7,44.8,30.22,WNW,298,4.0,8.0,45,0.00,,,0.03,meteohub,2013-03-29 23:02:00,
2013-03-29 19:07:00,66.7,44.1,30.22,WNW,298,8.0,8.0,44,0.00,,,0.03,meteohub,2013-03-29 23:07:00,
2013-03-29 19:12:00,66.6,45.1,30.22,NW,304,1.0,8.0,46,0.00,,,0.03,meteohub,2013-03-29 23:12:00,
2013-03-29 19:17:00,66.4,44.4,30.22,WNW,290,5.0,8.0,45,0.00,,,0.03,meteohub,2013-03-29 23:17:00,
2013-03-29 19:22:00,66.2,46.9,30.22,NW,326,5.0,8.0,50,0.00,,,0.03,meteohub,2013-03-29 23:22:00,
2013-03-29 19:27:00,65.7,47.1,30.22,NNW,328,4.0,8.0,51,0.00,,,0.03,meteohub,2013-03-29 23:27:00,
2013-03-29 19:33:00,65.1,47.1,30.22,NW,310,5.0,8.0,52,0.00,,,0.03,meteohub,2013-03-29 23:33:00,
2013-03-29 19:38:00,64.8,47.7,30.22,NW,311,1.0,7.0,54,0.00,,,0.03,meteohub,2013-03-29 23:38:00,
2013-03-29 19:43:00,64.4,47.8,30.22,NW,311,1.0,7.0,55,0.00,,,0.03,meteohub,2013-03-29 23:43:00,
2013-03-29 19:48:00,64.0,48.6,30.22,NW,317,2.0,7.0,57,0.00,,,0.03,meteohub,2013-03-29 23:48:00,
2013-03-29 19:53:00,63.7,48.6,30.22,NW,317,3.0,6.0,58,0.00,,,0.03,meteohub,2013-03-29 23:53:00,
2013-03-29 19:59:00,63.3,48.7,30.22,NW,317,1.0,6.0,59,0.00,,,0.03,meteohub,2013-03-29 23:59:00,
2013-03-29 20:04:00,63.1,49.1,30.23,NW,316,1.0,8.0,60,0.00,,,0.03,meteohub,2013-03-30 00:04:00,
2013-03-29 20:09:00,63.0,49.8,30.23,NW,317,0.0,8.0,62,0.00,,,0.03,meteohub,2013-03-30 00:09:00,
2013-03-29 20:14:00,62.8,50.0,30.23,NW,317,3.0,5.0,63,0.00,,,0.03,meteohub,2013-03-30 00:14:00,
2013-03-29 20:19:00,62.4,50.0,30.23,NW,317,3.0,5.0,64,0.00,,,0.03,meteohub,2013-03-30 00:19:00,
2013-03-29 20:25:00,62.4,50.5,30.23,NW,317,1.0,5.0,65,0.00,,,0.03,meteohub,2013-03-30 00:25:00,
2013-03-29 20:30:00,62.2,50.4,30.23,NW,317,2.0,5.0,65,0.00,,,0.03,meteohub,2013-03-30 00:30:00,
2013-03-29 20:35:00,62.1,50.5,30.23,NW,317,1.0,5.0,66,0.00,,,0.03,meteohub,2013-03-30 00:35:00,
2013-03-29 20:40:00,61.9,50.4,30.24,NW,317,1.0,4.0,66,0.00,,,0.03,meteohub,2013-03-30 00:40:00,
2013-03-29 20:45:00,61.7,50.7,30.24,NW,317,0.0,4.0,67,0.00,,,0.03,meteohub,2013-03-30 00:45:00,
2013-03-29 20:50:00,61.5,50.9,30.24,NW,317,0.0,3.0,68,0.00,,,0.03,meteohub,2013-03-30 00:50:00,
2013-03-29 20:55:00,61.5,50.9,30.24,NW,317,0.0,2.0,68,0.00,,,0.03,meteohub,2013-03-30 00:55:00,
2013-03-29 21:01:00,61.3,51.1,30.24,NW,317,0.0,2.0,69,0.00,,,0.03,meteohub,2013-03-30 01:01:00,
2013-03-29 21:06:00,61.3,51.1,30.24,NW,317,0.0,2.0,69,0.00,,,0.03,meteohub,2013-03-30 01:06:00,
2013-03-29 21:11:00,61.2,50.9,30.24,NW,317,0.0,1.0,69,0.00,,,0.03,meteohub,2013-03-30 01:11:00,
2013-03-29 21:16:00,61.0,50.7,30.25,NW,317,0.0,1.0,69,0.00,,,0.03,meteohub,2013-03-30 01:16:00,
2013-03-29 21:22:00,60.8,50.9,30.25,NW,317,0.0,1.0,70,0.00,,,0.03,meteohub,2013-03-30 01:22:00,
2013-03-29 21:27:00,60.6,50.7,30.25,NW,317,0.0,0.0,70,0.00,,,0.03,meteohub,2013-03-30 01:27:00,
2013-03-29 21:32:00,60.4,51.1,30.25,NW,317,0.0,0.0,71,0.00,,,0.03,meteohub,2013-03-30 01:32:00,
2013-03-29 21:37:00,60.4,51.1,30.25,NW,317,0.0,0.0,71,0.00,,,0.03,meteohub,2013-03-30 01:37:00,
2013-03-29 21:42:00,60.3,50.9,30.25,NW,317,0.0,0.0,71,0.00,,,0.03,meteohub,2013-03-30 01:42:00,
2013-03-29 21:47:00,60.1,50.7,30.25,NW,317,0.0,0.0,71,0.00,,,0.03,meteohub,2013-03-30 01:47:00,
2013-03-29 21:52:00,59.9,50.5,30.25,NW,317,0.0,0.0,71,0.00,,,0.03,meteohub,2013-03-30 01:52:00,
2013-03-29 21:57:00,59.5,50.2,30.25,NW,317,0.0,0.0,71,0.00,,,0.03,meteohub,2013-03-30 01:57:00,
2013-03-29 22:02:00,59.4,50.4,30.25,NW,317,0.0,0.0,72,0.00,,,0.03,meteohub,2013-03-30 02:02:00,
2013-03-29 22:07:00,59.2,50.2,30.26,NW,317,0.0,0.0,72,0.00,,,0.03,meteohub,2013-03-30 02:07:00,
2013-03-29 22:12:00,58.8,50.2,30.26,NW,317,0.0,0.0,73,0.00,,,0.03,meteohub,2013-03-30 02:12:00,
2013-03-29 22:18:00,58.6,50.0,30.26,NW,317,0.0,0.0,73,0.00,,,0.03,meteohub,2013-03-30 02:18:00,
2013-03-29 22:23:00,58.5,49.8,30.26,NW,317,0.0,0.0,73,0.00,,,0.03,meteohub,2013-03-30 02:23:00,
2013-03-29 22:28:00,58.5,50.2,30.26,NW,317,0.0,0.0,74,0.00,,,0.03,meteohub,2013-03-30 02:28:00,
2013-03-29 22:33:00,58.3,50.4,30.26,NW,317,0.0,0.0,75,0.00,,,0.03,meteohub,2013-03-30 02:33:00,
2013-03-29 22:39:00,58.3,50.7,30.26,NW,317,0.0,0.0,76,0.00,,,0.03,meteohub,2013-03-30 02:39:00,
2013-03-29 22:44:00,57.9,50.7,30.26,NW,317,0.0,0.0,77,0.00,,,0.03,meteohub,2013-03-30 02:44:00,
2013-03-29 22:49:00,57.9,50.7,30.26,NW,317,0.0,0.0,77,0.00,,,0.03,meteohub,2013-03-30 02:49:00,
2013-03-29 22:54:00,57.7,50.5,30.26,NW,317,0.0,0.0,77,0.00,,,0.03,meteohub,2013-03-30 02:54:00,
2013-03-29 22:59:00,57.7,50.5,30.26,NW,317,0.0,0.0,77,0.00,,,0.03,meteohub,2013-03-30 02:59:00,
2013-03-29 23:05:00,57.6,50.7,30.26,NW,317,0.0,0.0,78,0.00,,,0.03,meteohub,2013-03-30 03:05:00,
2013-03-29 23:10:00,57.6,50.7,30.26,NW,317,0.0,0.0,78,0.00,,,0.03,meteohub,2013-03-30 03:10:00,
2013-03-29 23:15:00,57.4,50.5,30.27,NW,317,0.0,0.0,78,0.00,,,0.03,meteohub,2013-03-30 03:15:00,
2013-03-29 23:20:00,57.0,50.2,30.27,NW,317,0.0,0.0,78,0.00,,,0.03,meteohub,2013-03-30 03:20:00,
2013-03-29 23:25:00,56.8,50.4,30.27,NW,317,0.0,0.0,79,0.00,,,0.03,meteohub,2013-03-30 03:25:00,
2013-03-29 23:31:00,56.8,50.4,30.26,NW,317,0.0,0.0,79,0.00,,,0.03,meteohub,2013-03-30 03:31:00,
2013-03-29 23:36:00,56.7,50.2,30.27,NW,317,0.0,0.0,79,0.00,,,0.03,meteohub,2013-03-30 03:36:00,
2013-03-29 23:41:00,56.7,50.5,30.27,NW,317,0.0,0.0,80,0.00,,,0.03,meteohub,2013-03-30 03:41:00,
2013-03-29 23:47:00,56.5,50.4,30.27,NW,317,0.0,0.0,80,0.00,,,0.03,meteohub,2013-03-30 03:47:00,
2013-03-29 23:52:00,56.3,50.2,30.27,NW,317,0.0,0.0,80,0.00,,,0.03,meteohub,2013-03-30 03:52:00,
2013-03-29 23:57:00,56.3,50.5,30.26,NW,317,0.0,0.0,81,0.00,,,0.03,meteohub,2013-03-30 03:57:00,